Weather History for Fairbanks Eiels, AK

Change the Weather History Date:

Friday, May 4, 2012

  Actual Average Record
Temperature  
Mean Temperature 38 °F -  
Max Temperature 53 °F 52 °F 68 °F (1960)
Min Temperature 24 °F 32 °F 9 °F (1992)
Degree Days  
Heating Degree Days 27    
Moisture  
Dew Point 24 °F    
Average Humidity 54    
Maximum Humidity 80    
Minimum Humidity 25    
Precipitation  
Precipitation 0.00 in - - ()
Sea Level Pressure  
Sea Level Pressure 29.76 in    
Wind  
Wind Speed 6 mph (NNE)    
Max Wind Speed 21 mph    
Max Gust Speed -    
Visibility 10 miles    
Events      
Averages and records for this station are not official NWS values.
T = Trace of Precipitation, MM = Missing Value Source: NWS Daily Summary

Daily Weather History Graph

Daily Weather History Graph

Search for Another Location

Airport:

Trip Planner

Search our weather history database for the weather conditions in past years. The results will help you decide how hot, cold, wet, or windy it might be!

Date:

Astronomy

May. 04, 2012 Rise Set
Actual Time 5:03 AM AKDT 10:29 PM AKDT
Civil Twilight 3:44 AM AKDT 11:49 PM AKDT
Nautical Twilight Sun does not rise Sun does not rise
Astronomical Twilight Sun does not rise Sun does not rise
Moon 9:07 PM AKDT (5/4) 4:24 AM AKDT (5/4)
Length of Visible Light 20h 04m
Length of Day
17h 25m
Waxing Gibbous, 97% of the Moon is Illuminated
May 4
Waxing Gibbous
May 5
Full
May 12
Last Quarter
May 20
New
May 28
First Quarter

Hourly Weather History & Observations

Time (AKDT) Temp. Windchill Dew Point Humidity Pressure Visibility Wind Dir Wind Speed Gust Speed Precip Events Conditions
12:55 AM 36.5 °F 31.0 °F 19.4 °F 50% 29.68 in 10.0 mi NNW 6.9 mph - N/A   Overcast
1:55 AM 33.1 °F 26.1 °F 23.9 °F 69% 29.69 in 10.0 mi North 8.1 mph - N/A   Overcast
2:55 AM 30.9 °F 24.3 °F 24.6 °F 77% 29.70 in 10.0 mi NNW 6.9 mph - N/A   Clear
3:55 AM 31.3 °F 26.6 °F 24.1 °F 75% 29.71 in 10.0 mi ESE 4.6 mph - N/A   Clear
4:55 AM 25.2 °F 18.3 °F 19.4 °F 79% 29.73 in 10.0 mi South 5.8 mph - N/A   Scattered Clouds
5:55 AM 24.3 °F 18.4 °F 19.0 °F 80% 29.74 in 10.0 mi SE 4.6 mph - N/A   Scattered Clouds
6:55 AM 26.4 °F 22.4 °F 19.9 °F 77% 29.75 in 10.0 mi South 3.5 mph - N/A   Clear
7:55 AM 31.1 °F 27.7 °F 21.9 °F 69% 29.76 in 10.0 mi SSE 3.5 mph - N/A   Clear
8:55 AM 36.5 °F 33.9 °F 23.2 °F 59% 29.76 in 10.0 mi Variable 3.5 mph - N/A   Clear
9:55 AM 40.1 °F - 23.7 °F 52% 29.77 in 10.0 mi Calm Calm - N/A   Partly Cloudy
10:55 AM 43.2 °F - 23.2 °F 45% 29.77 in 10.0 mi Calm Calm - N/A   Clear
11:55 AM 46.6 °F - 23.5 °F 40% 29.77 in 10.0 mi NE 4.6 mph - N/A   Clear
12:55 PM 49.6 °F - 23.0 °F 35% 29.76 in 10.0 mi North 6.9 mph - N/A   Clear
1:55 PM 51.4 °F - 16.9 °F 25% 29.75 in 10.0 mi ENE 5.8 mph - N/A   Clear
2:55 PM 52.5 °F - 18.7 °F 26% 29.75 in 10.0 mi Variable 4.6 mph - N/A   Mostly Cloudy
3:55 PM 52.9 °F - 17.4 °F 25% 29.75 in 10.0 mi Variable 5.8 mph - N/A   Mostly Cloudy
4:55 PM 49.5 °F - 26.2 °F 40% 29.76 in 10.0 mi NNE 20.7 mph - N/A   Overcast
5:02 PM 48.2 °F - 28.4 °F 46% 29.77 in 10.0 mi North 19.6 mph - N/A   Overcast
5:55 PM 48.6 °F - 26.4 °F 42% 29.78 in 10.0 mi NE 9.2 mph - N/A   Mostly Cloudy
6:55 PM 48.0 °F - 27.9 °F 46% 29.79 in 10.0 mi NW 8.1 mph - N/A   Partly Cloudy
7:55 PM 48.6 °F - 26.6 °F 42% 29.81 in 10.0 mi Variable 5.8 mph - N/A   Overcast
8:55 PM 45.3 °F 42.3 °F 30.7 °F 57% 29.81 in 10.0 mi Variable 5.8 mph - N/A   Mostly Cloudy
9:55 PM 41.9 °F 37.5 °F 29.3 °F 61% 29.83 in 10.0 mi North 6.9 mph - N/A   Clear
10:55 PM 38.7 °F 33.6 °F 30.6 °F 73% 29.84 in 10.0 mi North 6.9 mph - N/A   Mostly Cloudy
11:55 PM 37.9 °F - 29.5 °F 72% 29.84 in 10.0 mi Calm Calm - N/A   Scattered Clouds